{"data":{"norad_id":65834,"intl_designator":"2025-221M","name":"STARLINK-35320","alt_names":[],"object_type":"PAYLOAD","status":"ACTIVE","operator":null,"country":"US","launch_date":"2025-09-29","launch_site_code":"AFWTR","launch_vehicle":null,"mission":null,"orbit_class":"UNKNOWN","rcs_meters":null,"size_class":null,"mass_kg":null,"dimensions":null,"purposes":["comms"],"wikipedia_slug":null,"has_3d_model":false,"image_url":null,"decayed_at":null,"tle_current":{"epoch":"2026-09-20T05:48:53.474976Z","epoch_age_seconds":128396,"freshness":"FRESH","line1":"1 65834U 25221M   26263.24228559  .00012685  00000+0  38580-3 0  9992","line2":"2 65834  53.1569 263.0138 0001739  87.6425 272.4777 15.34411192 54547","mean_motion":15.34411192,"eccentricity":0.0001739,"inclination_deg":53.1569,"raan_deg":263.0138,"arg_perigee_deg":87.6425,"mean_anomaly_deg":272.4777,"bstar":0.0003858,"rev_number":5454,"period_min":93.847073555496,"perigee_km":461.48035909367,"apogee_km":463.85959175972,"semimajor_km":6840.8069754267,"source":"CELESTRAK","updated_at":"2026-09-21T09:00:35.721251Z"}}}